Terug naar catalogus

COSMOS 508

ActiefNavigatieLEO
NORAD 6121·PAYLOAD·🇷🇺 Russia

Gelanceerd Jul 20, 1972 vanaf Plesetsk Cosmodrome

Loading…

Volgende Passages (komende 24 uur)

TLE

VersSource: Space-Track

Epoch: Sep 14, 2026, 06:48 UTC

1 06121U 72057E   26257.28384110 -.00000021  00000-0 -35536-4 0  9991
2 06121  74.0242 273.1382 0034528 321.0290  50.9193 12.48903476468825

Volg COSMOS 508 in realtime met AllMySat

Download on the App Store